Hourly Weather Bolshie Lipki

Today, 20 June, Sunday

Time Temperature Precipitation Wind Pressure Humidity
00:00 +19°C° 0 mm 2 mps 757 mmHg 82%
01:00 +18°C° 0 mm 2 mps 758 mmHg 83%
02:00 +18°C° 0 mm 2 mps 758 mmHg 84%
03:00 +19°C° 0 mm 2 mps 757 mmHg 85%
04:00 +19°C° 0 mm 2 mps 757 mmHg 85%
05:00 +19°C° 0 mm 2 mps 757 mmHg 85%
06:00 +21°C° 0 mm 2 mps 757 mmHg 77%
07:00 +24°C° 0 mm 2 mps 757 mmHg 70%
08:00 +26°C° 0 mm 2 mps 757 mmHg 63%
09:00 +28°C° 0 mm 2 mps 757 mmHg 57%
10:00 +29°C° 0 mm 3 mps 757 mmHg 51%
11:00 +30°C° 0 mm 3 mps 757 mmHg 45%
12:00 +31°C° 0 mm 3 mps 757 mmHg 43%
13:00 +33°C° 0 mm 3 mps 756 mmHg 41%
14:00 +33°C° 0 mm 4 mps 756 mmHg 39%
15:00 +33°C° 0 mm 3 mps 756 mmHg 41%
16:00 +33°C° 0 mm 3 mps 756 mmHg 43%
17:00 +32°C° 0 mm 2 mps 756 mmHg 45%
18:00 +30°C° 0 mm 2 mps 756 mmHg 53%
19:00 +28°C° 0 mm 2 mps 755 mmHg 62%
20:00 +26°C° 0 mm 2 mps 755 mmHg 70%
21:00 +25°C° 0 mm 2 mps 755 mmHg 73%
22:00 +24°C° 0 mm 2 mps 755 mmHg 76%
23:00 +23°C° 0 mm 2 mps 755 mmHg 79%

Tomorrow, 21 June, Monday

Time Temperature Precipitation Wind Pressure Humidity
00:00 +21°C° 0.1 mm 2 mps 756 mmHg 81%
01:00 +21°C° 0.1 mm 2 mps 756 mmHg 83%
02:00 +20°C° 0.1 mm 2 mps 756 mmHg 85%
03:00 +21°C° 0.2 mm 1 mps 756 mmHg 88%
04:00 +22°C° 0.2 mm 1 mps 756 mmHg 90%
05:00 +22°C° 0.2 mm 1 mps 756 mmHg 93%
06:00 +24°C° 0 mm 2 mps 756 mmHg 85%
07:00 +26°C° 0 mm 2 mps 756 mmHg 77%
08:00 +28°C° 0 mm 2 mps 756 mmHg 69%
09:00 +29°C° 0 mm 3 mps 756 mmHg 61%
10:00 +30°C° 0 mm 3 mps 756 mmHg 54%
11:00 +33°C° 0 mm 3 mps 756 mmHg 47%
12:00 +33°C° 0 mm 3 mps 756 mmHg 45%
13:00 +34°C° 0 mm 3 mps 756 mmHg 43%
14:00 +34°C° 0 mm 3 mps 755 mmHg 41%
15:00 +34°C° 0 mm 3 mps 755 mmHg 43%
16:00 +34°C° 0 mm 3 mps 755 mmHg 45%
17:00 +33°C° 0 mm 3 mps 755 mmHg 47%
18:00 +30°C° 0 mm 2 mps 755 mmHg 55%
19:00 +28°C° 0 mm 2 mps 755 mmHg 63%
20:00 +26°C° 0 mm 1 mps 755 mmHg 71%
21:00 +25°C° 0 mm 2 mps 755 mmHg 73%
22:00 +24°C° 0 mm 2 mps 755 mmHg 75%
23:00 +23°C° 0 mm 2 mps 755 mmHg 77%

Day after tomorrow, 22 June, Tuesday

Time Temperature Precipitation Wind Pressure Humidity
00:00 +23°C° 0 mm 2 mps 755 mmHg 78%
01:00 +21°C° 0 mm 2 mps 755 mmHg 80%
02:00 +20°C° 0 mm 2 mps 755 mmHg 81%
03:00 +20°C° 0 mm 2 mps 755 mmHg 81%
04:00 +20°C° 0 mm 2 mps 755 mmHg 81%
05:00 +20°C° 0 mm 2 mps 755 mmHg 81%
06:00 +24°C° 0 mm 2 mps 755 mmHg 74%
07:00 +26°C° 0 mm 3 mps 755 mmHg 68%
08:00 +28°C° 0 mm 3 mps 755 mmHg 62%
09:00 +29°C° 0 mm 4 mps 755 mmHg 56%
10:00 +30°C° 0 mm 4 mps 755 mmHg 51%
11:00 +33°C° 0 mm 5 mps 755 mmHg 46%
12:00 +33°C° 0 mm 5 mps 754 mmHg 43%
13:00 +34°C° 0 mm 5 mps 754 mmHg 40%
14:00 +34°C° 0 mm 5 mps 754 mmHg 38%
15:00 +34°C° 0 mm 4 mps 754 mmHg 41%
16:00 +33°C° 0 mm 4 mps 754 mmHg 44%
17:00 +33°C° 0 mm 4 mps 753 mmHg 48%
18:00 +30°C° 0 mm 3 mps 753 mmHg 55%
19:00 +29°C° 0 mm 3 mps 753 mmHg 62%
20:00 +27°C° 0 mm 3 mps 753 mmHg 69%
21:00 +26°C° 0.2 mm 2 mps 754 mmHg 73%
22:00 +25°C° 0.2 mm 2 mps 754 mmHg 77%
23:00 +24°C° 0.2 mm 2 mps 754 mmHg 81%

23 June, Wednesday

Time Temperature Precipitation Wind Pressure Humidity
00:00 +24°C° 0.3 mm 2 mps 754 mmHg 86%
01:00 +23°C° 0.3 mm 2 mps 755 mmHg 90%
02:00 +21°C° 0.3 mm 2 mps 755 mmHg 94%
03:00 +23°C° 0 mm 2 mps 755 mmHg 94%
04:00 +23°C° 0 mm 2 mps 755 mmHg 93%
05:00 +23°C° 0 mm 2 mps 755 mmHg 93%
06:00 +25°C° 0 mm 2 mps 755 mmHg 85%
07:00 +27°C° 0 mm 2 mps 755 mmHg 77%
08:00 +28°C° 0 mm 3 mps 755 mmHg 69%
09:00 +30°C° 0.2 mm 3 mps 755 mmHg 62%
10:00 +31°C° 0.2 mm 3 mps 755 mmHg 56%
11:00 +33°C° 0.2 mm 3 mps 755 mmHg 50%
12:00 +34°C° 0 mm 3 mps 755 mmHg 44%
13:00 +34°C° 0 mm 3 mps 755 mmHg 39%
14:00 +35°C° 0 mm 3 mps 755 mmHg 34%
15:00 +35°C° 0 mm 3 mps 755 mmHg 37%
16:00 +34°C° 0 mm 2 mps 755 mmHg 40%
17:00 +34°C° 0 mm 2 mps 755 mmHg 44%
18:00 +31°C° 0 mm 2 mps 755 mmHg 52%
19:00 +30°C° 0 mm 1 mps 755 mmHg 60%
20:00 +28°C° 0 mm 1 mps 755 mmHg 68%
21:00 +27°C° 0 mm 1 mps 755 mmHg 71%
22:00 +26°C° 0 mm 1 mps 755 mmHg 73%
23:00 +25°C° 0 mm 1 mps 755 mmHg 75%

24 June, Thursday

Time Temperature Precipitation Wind Pressure Humidity
00:00 +24°C° 0.3 mm 1 mps 755 mmHg 79%
01:00 +23°C° 0.3 mm 1 mps 755 mmHg 83%
02:00 +22°C° 0.3 mm 1 mps 755 mmHg 87%
03:00 +22°C° 0.1 mm 1 mps 755 mmHg 88%
04:00 +23°C° 0.1 mm 1 mps 755 mmHg 89%
05:00 +23°C° 0.1 mm 1 mps 755 mmHg 91%
06:00 +25°C° 0 mm 1 mps 755 mmHg 84%
07:00 +27°C° 0 mm 2 mps 755 mmHg 78%
08:00 +28°C° 0 mm 2 mps 755 mmHg 71%
09:00 +30°C° 0 mm 2 mps 755 mmHg 64%
10:00 +33°C° 0 mm 3 mps 755 mmHg 57%
11:00 +34°C° 0 mm 3 mps 755 mmHg 51%
12:00 +35°C° 0 mm 3 mps 755 mmHg 46%
13:00 +36°C° 0 mm 3 mps 754 mmHg 42%
14:00 +37°C° 0 mm 3 mps 754 mmHg 38%
15:00 +36°C° 0 mm 3 mps 754 mmHg 40%
16:00 +35°C° 0 mm 3 mps 753 mmHg 43%
17:00 +35°C° 0 mm 3 mps 753 mmHg 45%
18:00 +30°C° 2.1 mm 3 mps 753 mmHg 59%
19:00 +26°C° 2.1 mm 3 mps 753 mmHg 74%
20:00 +22°C° 2.1 mm 3 mps 753 mmHg 89%
21:00 +21°C° 2.5 mm 2 mps 753 mmHg 90%
22:00 +20°C° 2.5 mm 2 mps 753 mmHg 92%
23:00 +21°C° 2.5 mm 1 mps 753 mmHg 94%

25 June, Friday

Time Temperature Precipitation Wind Pressure Humidity
00:00 +20°C° 0.4 mm 1 mps 753 mmHg 94%
01:00 +20°C° 0.4 mm 1 mps 753 mmHg 95%
02:00 +20°C° 0.4 mm 1 mps 753 mmHg 96%
03:00 +21°C° 0 mm 1 mps 753 mmHg 95%
04:00 +21°C° 0 mm 1 mps 753 mmHg 95%
05:00 +21°C° 0 mm 1 mps 753 mmHg 95%
06:00 +23°C° 0 mm 1 mps 753 mmHg 89%
07:00 +25°C° 0 mm 1 mps 753 mmHg 82%
08:00 +27°C° 0 mm 1 mps 752 mmHg 75%
09:00 +28°C° 0 mm 2 mps 752 mmHg 67%
10:00 +30°C° 0 mm 2 mps 752 mmHg 60%
11:00 +31°C° 0 mm 3 mps 752 mmHg 52%
12:00 +33°C° 0.1 mm 3 mps 752 mmHg 52%
13:00 +33°C° 0.1 mm 3 mps 752 mmHg 52%
14:00 +33°C° 0.1 mm 3 mps 752 mmHg 51%
15:00 +30°C° 1.6 mm 3 mps 752 mmHg 63%
16:00 +27°C° 1.6 mm 3 mps 752 mmHg 74%
17:00 +25°C° 1.6 mm 3 mps 752 mmHg 86%
18:00 +24°C° 1.2 mm 2 mps 752 mmHg 89%
19:00 +23°C° 1.2 mm 2 mps 752 mmHg 92%
20:00 +22°C° 1.2 mm 1 mps 752 mmHg 95%
21:00 +21°C° 0.1 mm 1 mps 752 mmHg 96%
22:00 +21°C° 0.1 mm 1 mps 752 mmHg 97%
23:00 +20°C° 0.1 mm 1 mps 752 mmHg 97%
Show more